Date String (YYYY-MM-DD hh:mm:ss) UTC,Instrument flags,Ambient pressure (hPa),Sample flow (lpm),Bypass flow (lpm),Sample temperature (°C),Ambient temperature (°C),ASC tube jacket temperature (°C),LED temperature (°C),Box temperature (°C),Sample RH (%),Span deviation,Mass concentration (μg/m³),Mass concentration (μg/m³),Mass concentration (μg/m³)
DateTimeUTC,F1_M11,P_M11,Q1_M11,Q2_M11,T1_M11,T2_M11,T3_M11,T4_M11,T5_M11,U1_M11,ZSPAN_M11,X2_M11,X0_M11,X1_M11
2022-04-17 09:00:00,,0821.5,4.99,0.00,26.1,25.2,00.0,35.1,27.9,12.4,0003.0,0007.01,0022.27,0004.14
2022-04-17 09:01:00,,0821.5,5.01,0.00,26.1,25.2,00.0,35.1,27.9,12.4,0003.1,0007.05,0022.76,0004.14
2022-04-17 09:02:00,,0821.4,4.99,0.00,26.1,25.2,00.0,35.1,27.9,12.3,0000.5,0007.11,0022.35,0004.14
2022-04-17 09:03:00,,0821.4,4.99,0.00,26.1,25.1,00.0,35.1,27.9,12.3,0000.0,0007.12,0021.47,0004.14
2022-04-17 09:04:00,,0821.4,5.01,0.00,26.1,25.1,00.0,35.1,27.9,12.3,0000.0,0007.08,0020.53,0004.14
2022-04-17 09:05:00,,0821.4,4.98,0.00,26.1,25.2,00.0,35.1,27.9,12.2,0000.0,0007.15,0021.22,0004.15
2022-04-17 09:06:00,,0821.4,5.00,0.00,26.1,25.2,00.0,35.0,27.9,12.3,0000.0,0007.18,0021.25,0004.17
2022-04-17 09:07:00,,0821.4,5.01,0.00,26.1,25.1,00.0,35.0,27.9,12.4,0000.0,0007.21,0022.34,0004.16
2022-04-17 09:08:00,,0821.4,4.99,0.00,26.1,25.1,00.0,35.0,27.9,12.3,0000.0,0007.24,0022.37,0004.17
2022-04-17 09:09:00,,0821.2,5.00,0.00,26.1,25.1,00.0,35.0,27.9,12.4,0000.0,0007.26,0023.29,0004.17
2022-04-17 09:10:00,,0821.4,5.01,0.00,26.1,25.1,00.0,35.0,27.8,12.4,0000.0,0007.32,0024.05,0004.17
2022-04-17 09:11:00,,0821.3,4.98,0.00,26.0,25.1,00.0,35.0,27.8,12.3,0000.0,0007.35,0024.65,0004.16
2022-04-17 09:12:00,,0821.2,5.01,0.00,26.0,25.0,00.0,35.0,27.8,12.2,0000.0,0007.36,0024.60,0004.17
2022-04-17 09:13:00,,0821.3,5.00,0.00,26.0,25.0,00.0,35.0,27.8,12.2,0000.0,0007.40,0026.18,0004.17
2022-04-17 09:14:00,,0821.3,4.98,0.00,26.0,25.0,00.0,35.0,27.8,12.2,0000.0,0007.41,0029.10,0004.18
2022-04-17 09:15:00,,0821.2,5.00,0.00,26.0,25.0,00.0,35.0,27.8,12.3,0000.0,0007.41,0030.09,0004.19
2022-04-17 09:16:00,,0821.4,5.00,0.00,26.0,25.0,00.0,35.0,27.8,12.3,0000.0,0007.39,0029.54,0004.19
2022-04-17 09:17:00,,0821.4,5.00,0.00,26.0,25.0,00.0,35.0,27.8,12.4,0000.0,0007.34,0030.48,0004.18
2022-04-17 09:18:00,,0821.3,5.00,0.00,26.0,25.0,00.0,34.9,27.8,12.5,0000.0,0007.30,0030.19,0004.18
2022-04-17 09:19:00,,0821.3,4.99,0.00,25.9,25.0,00.0,34.9,27.7,12.5,0000.6,0007.32,0030.32,0004.18
2022-04-17 09:20:00,,0821.4,5.00,0.00,25.9,25.0,00.0,34.9,27.7,12.5,0000.5,0007.40,0029.81,0004.18
2022-04-17 09:21:00,,0821.4,5.00,0.00,25.9,24.9,00.0,34.9,27.7,12.4,0001.3,0007.52,0029.50,0004.18
2022-04-17 09:22:00,,0821.3,5.01,0.00,25.9,24.9,00.0,34.9,27.7,12.4,0001.8,0007.54,0030.23,0004.19
2022-04-17 09:23:00,,0821.4,4.99,0.00,25.9,24.9,00.0,34.9,27.7,12.5,0001.8,0007.58,0030.28,0004.20
2022-04-17 09:24:00,,0821.4,5.00,0.00,25.9,24.9,00.0,34.9,27.7,12.5,0000.5,0007.59,0029.18,0004.19
2022-04-17 09:25:00,,0821.4,5.01,0.00,25.9,24.9,00.0,34.9,27.7,12.6,0000.6,0007.59,0027.03,0004.18
2022-04-17 09:26:00,,0821.3,4.99,0.00,25.8,24.9,00.0,34.9,27.7,12.6,0000.2,0007.62,0026.45,0004.17
2022-04-17 09:27:00,,0821.4,5.00,0.00,25.8,24.9,00.0,34.9,27.7,12.7,0001.3,0007.62,0026.53,0004.17
2022-04-17 09:28:00,,0821.4,4.99,0.00,25.8,24.9,00.0,34.8,27.6,12.7,0000.0,0007.66,0025.81,0004.17
2022-04-17 09:29:00,,0821.4,5.02,0.00,25.8,24.9,00.0,34.8,27.6,12.7,0000.0,0007.71,0024.94,0004.17
2022-04-17 09:30:00,,0821.4,5.00,0.00,25.8,24.9,00.0,34.8,27.6,12.6,0000.0,0007.76,0025.10,0004.16
2022-04-17 09:31:00,,0821.4,5.00,0.00,25.8,24.9,00.0,34.8,27.6,12.6,0000.0,0007.68,0025.85,0004.15
2022-04-17 09:32:00,,0821.5,5.00,0.00,25.8,24.9,00.0,34.8,27.6,12.6,0000.0,0007.57,0025.64,0004.14
2022-04-17 09:33:00,,0821.4,4.99,0.00,25.8,24.9,00.0,34.8,27.6,12.6,0000.0,0007.50,0024.42,0004.13
2022-04-17 09:34:00,,0821.3,5.02,0.00,25.8,24.8,00.0,34.8,27.6,12.5,0000.0,0007.49,0023.62,0004.12
2022-04-17 09:35:00,,0821.4,4.99,0.00,25.8,24.8,00.0,34.8,27.6,12.4,0000.0,0007.51,0023.73,0004.13
2022-04-17 09:36:00,,0821.3,5.00,0.00,25.8,24.8,00.0,34.8,27.6,12.3,0000.0,0007.48,0023.44,0004.14
2022-04-17 09:37:00,,0821.2,5.01,0.00,25.8,24.8,00.0,34.8,27.6,12.3,0000.0,0007.44,0022.68,0004.14
2022-04-17 09:38:00,,0821.3,5.01,0.00,25.8,24.8,00.0,34.8,27.6,12.3,0000.0,0007.38,0023.94,0004.12
2022-04-17 09:39:00,,0821.3,5.00,0.00,25.8,24.8,00.0,34.8,27.6,12.3,0000.0,0007.32,0024.80,0004.12
2022-04-17 09:40:00,,0821.4,4.99,0.00,25.8,24.8,00.0,34.8,27.6,12.3,0000.0,0007.27,0025.63,0004.11
2022-04-17 09:41:00,,0821.4,5.02,0.00,25.8,24.8,00.0,34.8,27.6,12.3,0000.0,0007.22,0025.84,0004.12
2022-04-17 09:42:00,,0821.3,4.99,0.00,25.8,24.8,00.0,34.7,27.6,12.3,0000.0,0007.21,0025.16,0004.12
2022-04-17 09:43:00,,0821.3,4.98,0.00,25.8,24.8,00.0,34.7,27.6,12.4,0000.0,0007.17,0025.23,0004.13
2022-04-17 09:44:00,,0821.3,5.02,0.00,25.8,24.8,00.0,34.7,27.6,12.4,0000.0,0007.25,0026.05,0004.14
2022-04-17 09:45:00,,0821.3,5.01,0.00,25.8,24.8,00.0,34.7,27.6,12.4,0000.0,0007.27,0026.51,0004.14
2022-04-17 09:46:00,,0821.3,5.00,0.00,25.7,24.8,00.0,34.7,27.6,12.5,0000.0,0007.21,0025.91,0004.12
2022-04-17 09:47:00,,0821.4,5.00,0.00,25.7,24.8,00.0,34.7,27.6,12.5,0000.0,0007.30,0026.74,0004.12
2022-04-17 09:48:00,,0821.5,5.01,0.00,25.7,24.8,00.0,34.7,27.6,12.5,0000.0,0007.41,0026.64,0004.13
2022-04-17 09:49:00,,0821.5,4.99,0.00,25.7,24.8,00.0,34.7,27.5,12.6,0000.0,0007.50,0026.09,0004.14
2022-04-17 09:50:00,,0821.4,4.99,0.00,25.7,24.8,00.0,34.7,27.5,12.6,0000.0,0007.52,0024.58,0004.14
2022-04-17 09:51:00,,0821.4,5.00,0.00,25.7,24.7,00.0,34.7,27.5,12.6,0000.0,0007.58,0024.84,0004.15
2022-04-17 09:52:00,,0821.4,4.99,0.00,25.7,24.7,00.0,34.7,27.5,12.6,0000.0,0007.66,0025.13,0004.14
2022-04-17 09:53:00,,0821.4,5.00,0.00,25.7,24.7,00.0,34.7,27.5,12.7,0000.0,0007.61,0025.29,0004.14
2022-04-17 09:54:00,,0821.4,5.01,0.00,25.7,24.7,00.0,34.7,27.5,12.7,0000.0,0007.66,0025.88,0004.14
2022-04-17 09:55:00,,0821.4,4.99,0.00,25.7,24.7,00.0,34.7,27.5,12.7,0000.0,0007.63,0025.53,0004.14
2022-04-17 09:56:00,,0821.4,4.99,0.00,25.7,24.7,00.0,34.7,27.5,12.7,0000.0,0007.58,0025.60,0004.14
2022-04-17 09:57:00,,0821.5,5.00,0.00,25.7,24.7,00.0,34.6,27.5,12.7,0000.0,0007.58,0026.79,0004.15
2022-04-17 09:58:00,,0821.5,5.00,0.00,25.7,24.7,00.0,34.6,27.5,12.7,0000.0,0007.53,0026.14,0004.16
2022-04-17 09:59:00,,0821.5,5.02,0.00,25.7,24.7,00.0,34.6,27.5,12.7,0000.0,0007.46,0026.42,0004.16
